N633XU KBOS-BIKF

Flight info

Callsign N633XU
Flight time N/A
Altitude 41000
Route LBSTA8 LBSTA DCT DANOL DCT IRLOK/M086F410 DCT 58N050W 61N040W 63N030W DCT EPENI DCT ELDIS ELDIS4K
Aircraft C750/M-SBDE3FGHRWXY/S

Departure

Time N/A
Airport Boston Logan International Airport (KBOS)

Arrival

Time 2026-04-29 15:54
Airport Keflavik International Airport (BIKF)
Time Latitude Longitude Altitude Speed Heading
2026-04-29 15:27 63.24222 -28.12259 44745 ft 570 kts 77°
2026-04-29 15:27 63.25253 -28.03752 44748 ft 570 kts 77°
2026-04-29 15:28 63.27292 -27.86763 44752 ft 570 kts 78°
2026-04-29 15:28 63.29307 -27.69781 44764 ft 570 kts 78°
2026-04-29 15:28 63.30304 -27.61319 44778 ft 559 kts 78°
2026-04-29 15:29 63.31271 -27.53082 44740 ft 540 kts 78°
2026-04-29 15:29 63.33089 -27.37378 44483 ft 513 kts 78°
2026-04-29 15:30 63.34876 -27.21751 43659 ft 537 kts 78°
2026-04-29 15:30 63.35800 -27.13647 42940 ft 550 kts 78°
2026-04-29 15:30 63.36755 -27.05260 42194 ft 553 kts 79°
2026-04-29 15:30 63.37680 -26.97061 41468 ft 551 kts 79°
2026-04-29 15:31 63.38674 -26.88826 40718 ft 549 kts 75°
2026-04-29 15:31 63.39856 -26.80759 40009 ft 544 kts 75°
2026-04-29 15:31 63.41005 -26.72737 39283 ft 540 kts 76°
2026-04-29 15:31 63.42128 -26.64778 38573 ft 537 kts 76°
2026-04-29 15:32 63.43262 -26.56815 37856 ft 535 kts 76°
2026-04-29 15:32 63.44397 -26.48879 37163 ft 535 kts 76°
2026-04-29 15:32 63.45515 -26.40972 36454 ft 538 kts 77°
2026-04-29 15:32 63.46629 -26.32999 35741 ft 541 kts 77°
2026-04-29 15:33 63.47750 -26.24943 35021 ft 548 kts 77°
2026-04-29 15:33 63.48892 -26.16751 34287 ft 554 kts 78°
2026-04-29 15:33 63.50045 -26.08462 33546 ft 558 kts 78°
2026-04-29 15:33 63.51188 -26.00175 32813 ft 555 kts 78°
2026-04-29 15:34 63.52312 -25.91976 32134 ft 546 kts 79°
2026-04-29 15:34 63.53414 -25.83891 31412 ft 540 kts 79°
2026-04-29 15:34 63.54503 -25.75860 30694 ft 534 kts 80°
2026-04-29 15:34 63.55578 -25.67910 29988 ft 529 kts 80°
2026-04-29 15:35 63.56630 -25.60088 29293 ft 522 kts 81°
2026-04-29 15:35 63.57669 -25.52315 28602 ft 517 kts 81°
2026-04-29 15:35 63.58693 -25.44612 27925 ft 512 kts 81°
2026-04-29 15:35 63.59695 -25.37054 27259 ft 507 kts 81°
2026-04-29 15:36 63.60695 -25.29493 26585 ft 502 kts 81°
2026-04-29 15:36 63.61798 -25.22031 25924 ft 503 kts 77°
2026-04-29 15:36 63.63065 -25.14701 25254 ft 501 kts 75°
2026-04-29 15:36 63.64327 -25.07474 24583 ft 492 kts 79°
2026-04-29 15:37 63.65155 -25.00121 23981 ft 477 kts 88°
2026-04-29 15:37 63.65709 -24.92802 23379 ft 471 kts 90°
2026-04-29 15:37 63.66271 -24.85525 22754 ft 470 kts 87°
2026-04-29 15:37 63.67105 -24.78482 22135 ft 474 kts 79°
2026-04-29 15:38 63.68555 -24.71728 21501 ft 481 kts 64°
2026-04-29 15:38 63.70340 -24.65395 20889 ft 477 kts 62°
2026-04-29 15:38 63.72075 -24.59063 20258 ft 471 kts 65°
2026-04-29 15:38 63.73634 -24.52642 19635 ft 464 kts 67°
2026-04-29 15:39 63.75176 -24.46236 19017 ft 460 kts 65°
2026-04-29 15:39 63.76794 -24.40012 18408 ft 457 kts 63°
2026-04-29 15:39 63.78398 -24.33922 17809 ft 452 kts 64°
2026-04-29 15:39 63.79939 -24.27764 17207 ft 447 kts 65°
2026-04-29 15:40 63.81432 -24.21667 16613 ft 441 kts 65°
2026-04-29 15:40 63.82946 -24.15640 16026 ft 438 kts 64°
2026-04-29 15:40 63.84465 -24.09678 15444 ft 434 kts 64°
2026-04-29 15:40 63.85949 -24.03751 14852 ft 430 kts 65°
2026-04-29 15:41 63.87400 -23.97860 14301 ft 425 kts 65°
2026-04-29 15:41 63.88843 -23.92034 13742 ft 421 kts 64°
2026-04-29 15:41 63.90275 -23.86290 13181 ft 417 kts 64°
2026-04-29 15:41 63.91692 -23.80570 12630 ft 413 kts 64°
2026-04-29 15:42 63.93080 -23.74914 12081 ft 408 kts 64°
2026-04-29 15:42 63.94456 -23.69301 11540 ft 404 kts 64°
2026-04-29 15:42 63.95819 -23.63755 11005 ft 398 kts 64°
2026-04-29 15:42 63.97150 -23.58324 10484 ft 387 kts 64°
2026-04-29 15:43 63.98406 -23.53186 10384 ft 354 kts 64°
2026-04-29 15:43 63.99547 -23.48507 10381 ft 324 kts 65°
2026-04-29 15:43 64.00612 -23.44097 10380 ft 314 kts 65°
2026-04-29 15:43 64.01678 -23.39654 10384 ft 325 kts 65°
2026-04-29 15:44 64.02780 -23.35103 10386 ft 329 kts 65°
2026-04-29 15:44 64.03898 -23.30490 10124 ft 334 kts 65°
2026-04-29 15:44 64.04982 -23.26020 9763 ft 317 kts 65°
2026-04-29 15:44 64.06032 -23.21629 9401 ft 318 kts 65°
2026-04-29 15:45 64.07087 -23.17205 9034 ft 315 kts 65°
2026-04-29 15:45 64.08133 -23.12844 8630 ft 306 kts 65°
2026-04-29 15:45 64.09149 -23.08617 8149 ft 302 kts 65°
2026-04-29 15:45 64.10152 -23.04399 7676 ft 301 kts 65°
2026-04-29 15:46 64.11140 -23.00233 7218 ft 299 kts 65°
2026-04-29 15:46 64.12127 -22.96082 6756 ft 296 kts 65°
2026-04-29 15:46 64.13107 -22.91955 6306 ft 293 kts 65°
2026-04-29 15:46 64.14089 -22.87894 5860 ft 290 kts 64°
2026-04-29 15:47 64.15071 -22.83975 5399 ft 270 kts 64°
2026-04-29 15:47 64.15965 -22.80476 4890 ft 240 kts 64°
2026-04-29 15:47 64.16778 -22.77303 4313 ft 222 kts 64°
2026-04-29 15:47 64.17535 -22.74320 3743 ft 210 kts 67°
2026-04-29 15:48 64.17741 -22.71102 2970 ft 212 kts 107°
2026-04-29 15:48 64.17355 -22.67946 2886 ft 196 kts 115°
2026-04-29 15:48 64.16917 -22.65170 2819 ft 173 kts 134°
2026-04-29 15:48 64.16051 -22.63525 2743 ft 156 kts 154°
2026-04-29 15:49 64.15155 -22.62115 2657 ft 158 kts 153°
2026-04-29 15:49 64.14164 -22.61167 2567 ft 152 kts 168°
2026-04-29 15:49 64.13135 -22.60645 2479 ft 151 kts 181°
2026-04-29 15:49 64.12092 -22.60574 2496 ft 149 kts 183°
2026-04-29 15:50 64.11074 -22.60529 2487 ft 149 kts 185°
2026-04-29 15:50 64.10022 -22.60530 2303 ft 149 kts 185°
2026-04-29 15:50 64.09012 -22.60530 2097 ft 141 kts 185°
2026-04-29 15:50 64.08054 -22.60531 1899 ft 138 kts 186°
2026-04-29 15:51 64.07124 -22.60528 1717 ft 121 kts 186°
2026-04-29 15:51 64.06362 -22.60519 1567 ft 104 kts 187°
2026-04-29 15:51 64.05649 -22.60519 1422 ft 103 kts 188°
2026-04-29 15:51 64.04915 -22.60527 1281 ft 107 kts 186°
2026-04-29 15:52 64.04169 -22.60470 1178 ft 107 kts 186°
2026-04-29 15:52 64.03417 -22.60468 1053 ft 109 kts 188°
2026-04-29 15:52 64.02650 -22.60484 912 ft 110 kts 188°
2026-04-29 15:52 64.01881 -22.60532 767 ft 111 kts 188°
2026-04-29 15:53 64.01112 -22.60566 640 ft 109 kts 188°
2026-04-29 15:53 64.00360 -22.60545 484 ft 110 kts 185°
2026-04-29 15:53 63.99593 -22.60538 321 ft 110 kts 185°
2026-04-29 15:53 63.98820 -22.60543 193 ft 111 kts 183°
2026-04-29 15:54 63.98104 -22.60547 168 ft 92 kts 180°
2026-04-29 15:54 63.97580 -22.60539 171 ft 51 kts 180°
2026-04-29 15:54 63.97409 -22.60506 169 ft 11 kts 130°
2026-04-29 15:54 63.97378 -22.60346 167 ft 12 kts 113°
2026-04-29 15:55 63.97346 -22.60166 167 ft 13 kts 111°
2026-04-29 15:55 63.97310 -22.59970 166 ft 14 kts 113°
2026-04-29 15:55 63.97270 -22.59759 166 ft 15 kts 114°
2026-04-29 15:55 63.97231 -22.59535 166 ft 15 kts 112°
2026-04-29 15:56 63.97248 -22.59385 166 ft 10 kts 24°
2026-04-29 15:56 63.97309 -22.59328 168 ft 8 kts 25°
2026-04-29 15:56 63.97359 -22.59284 169 ft 8 kts 19°
2026-04-29 15:56 63.97414 -22.59240 170 ft 8 kts 21°
2026-04-29 15:57 63.97450 -22.59209 171 ft 8 kts 20°
2026-04-29 15:57 63.97459 -22.59168 170 ft 3 kts 110°
2026-04-29 15:57 63.97443 -22.59077 168 ft 8 kts 112°
2026-04-29 15:57 63.97440 -22.59061 168 ft 0 kts 112°